Theta_e
310 310 310 310 310 310 310 311 311 311 311 311 311 312 312 313 313 317 320 326 328 329 334 344 337 339 345 353 352 349 355 359 353 352 350 349 355 350 350 353 351 351 352 351 351
310 310 310 310 310 310 310 311 311 311 311 311 311 311 312 313 317 322 329 328 330 328 337 337 336 344 353 352 350 353 355 355 350 350 350 351 351 354 354 353 355 356 353 352 351
310 309 309 309 309 310 310 311 311 311 311 311 311 311 312 312 325 329 331 334 330 330 334 347 345 348 355 351 352 352 354 352 351 350 349 352 350 353 355 356 354 356 357 353 351
310 310 309 309 309 309 310 310 311 311 311 311 311 311 312 317 331 332 325 330 331 332 343 350 350 351 357 355 351 355 351 350 352 352 352 353 347 353 354 353 351 353 354 353 353
311 310 309 309 309 309 310 310 310 310 311 311 311 311 313 315 319 321 324 331 329 341 343 352 353 353 354 356 353 352 352 353 352 351 351 350 352 349 353 350 350 353 354 354 353
311 310 309 308 308 308 309 310 310 311 311 311 311 310 319 316 319 321 330 327 329 338 339 348 348 350 354 351 352 353 354 353 351 350 351 353 352 351 351 352 354 355 355 354 353
311 310 307 307 307 308 309 309 310 311 311 312 311 313 320 316 326 332 329 330 331 332 339 344 349 351 350 355 350 356 357 351 353 352 349 350 353 354 352 354 356 356 355 353 351
311 308 307 306 306 307 309 310 311 311 312 312 311 317 314 315 316 321 326 327 330 332 339 346 350 353 347 351 357 361 355 354 351 350 346 348 350 351 352 355 357 355 355 353 352
310 309 308 306 306 306 309 310 311 315 314 313 318 318 315 315 318 318 318 321 328 332 345 348 349 354 354 359 360 359 362 358 354 350 348 347 351 351 351 354 356 356 355 354 353
310 310 310 307 307 307 308 310 314 317 318 321 324 317 315 319 322 324 318 326 331 336 346 347 351 352 360 362 358 359 358 357 357 352 351 350 352 351 350 352 355 355 355 354 353
310 310 310 309 308 307 309 310 311 316 323 317 316 315 316 318 319 326 322 330 334 339 343 345 347 354 351 356 353 356 357 358 357 354 352 353 353 353 351 351 352 352 353 352 352
309 309 310 310 309 307 310 310 313 313 317 316 318 318 317 316 318 321 325 331 335 336 342 346 348 346 346 351 354 357 358 358 355 350 353 352 354 353 351 351 351 350 350 349 348
309 311 311 310 309 310 307 310 312 310 317 319 317 318 319 318 318 321 326 331 335 340 343 346 345 345 344 348 357 356 357 356 356 352 351 352 354 354 352 350 350 349 348 348 347
311 311 310 310 309 308 309 309 310 310 319 319 318 319 318 320 320 321 324 332 334 338 343 343 344 349 349 350 351 354 351 352 352 354 358 350 357 354 352 354 352 351 349 348 347
311 310 309 308 309 309 309 311 310 311 316 316 318 317 319 320 322 322 323 328 335 337 341 342 347 350 354 352 348 352 350 351 352 354 353 354 355 353 347 351 353 352 350 349 348
310 309 307 308 307 309 309 309 310 321 320 321 320 320 321 321 322 324 324 329 336 342 342 343 347 348 349 350 351 351 353 350 351 352 358 353 354 354 351 351 350 349 350 350 349
309 308 307 308 310 309 308 311 322 321 319 323 321 321 322 322 322 327 328 331 336 341 345 347 352 350 350 356 352 353 356 369 368 360 360 349 352 352 349 347 347 349 349 349 349
309 309 309 308 309 307 308 317 323 320 320 319 318 318 321 322 322 327 330 332 334 337 343 348 352 353 350 354 357 355 357 362 363 361 356 348 354 351 346 346 343 343 343 344 347
310 309 308 309 309 308 313 319 321 320 319 318 319 320 321 322 322 327 331 333 334 337 342 347 346 347 350 350 353 357 357 353 356 357 360 355 352 349 348 346 346 346 346 344 343
308 307 311 311 310 308 315 318 319 315 318 317 319 318 318 317 323 325 331 331 335 339 340 346 347 346 350 349 350 354 351 357 357 364 363 358 357 353 351 350 348 349 350 349 348
307 317 310 310 307 312 316 316 317 316 317 318 318 317 317 317 320 325 329 328 332 337 341 343 344 348 350 353 355 354 354 355 356 353 357 357 353 351 352 348 348 353 354 353 352
310 321 311 309 312 310 315 316 314 317 315 317 316 317 317 317 320 321 327 330 328 333 340 340 343 351 351 346 346 350 352 353 356 358 353 353 352 342 346 346 348 354 359 356 353
317 318 311 310 318 319 321 319 315 316 316 316 316 317 317 320 324 321 320 320 324 331 335 334 336 342 349 349 347 350 350 351 351 349 354 353 351 342 341 343 344 356 359 357 353
316 322 318 314 313 318 321 323 324 321 319 318 320 319 321 322 321 324 321 320 320 326 334 335 336 337 342 344 347 352 350 350 350 353 352 351 349 348 346 341 341 357 357 354 352
313 317 316 321 319 317 317 320 323 324 322 321 322 320 321 322 321 321 320 320 321 332 333 332 335 337 336 337 344 345 347 350 352 351 353 348 350 348 349 344 343 348 355 352 350
314 315 315 317 316 317 316 321 322 321 321 324 322 323 323 324 323 322 322 324 324 325 329 328 336 337 337 336 338 341 342 343 349 349 349 349 350 345 343 345 345 352 355 355 353
308 308 312 317 318 317 317 320 319 317 318 320 321 321 323 324 322 322 323 323 324 322 327 330 335 339 336 336 339 342 341 342 345 347 348 351 349 348 347 347 352 355 355 355 353
Wind_Speed
18 18 19 19 19 19 19 19 19 19 19 19 19 20 21 24 23 10 7 6 11 20 17 22 10 14 15 6 5 3 2 1 2 2 3 1 8 3 5 11 3 3 4 12 29
19 20 20 20 20 20 19 19 19 19 19 19 19 20 21 24 16 10 6 9 9 25 19 22 14 15 5 5 3 3 2 4 1 1 2 2 8 10 6 12 5 8 13 28 29
20 19 20 21 21 21 20 20 20 19 19 19 19 19 19 18 5 3 3 7 17 22 16 11 18 11 4 2 3 2 3 3 2 5 3 1 5 9 10 10 10 14 21 23 27
20 20 21 22 22 22 21 21 20 20 20 19 19 19 18 5 4 1 7 1 21 17 15 14 12 7 5 5 4 3 6 4 2 4 4 3 10 8 12 3 9 19 24 24 24
21 21 21 22 23 23 22 22 22 21 20 19 17 16 6 3 9 9 8 5 23 15 13 9 11 5 5 4 5 4 4 4 8 6 8 5 8 6 10 3 11 21 23 22 20
21 21 21 22 23 23 24 24 22 22 20 19 15 10 2 6 5 9 3 16 14 11 9 9 6 5 3 3 5 3 9 8 6 5 6 7 4 8 4 12 17 21 22 20 20
22 22 21 23 23 24 25 25 23 22 22 19 14 2 3 14 3 4 10 10 12 6 6 7 6 4 6 4 0 3 6 4 5 2 4 7 6 5 11 15 18 17 19 18 17
23 22 24 24 25 26 25 25 24 23 17 12 6 5 8 7 12 21 14 5 4 5 2 8 4 4 1 2 2 3 2 4 4 1 4 7 3 5 13 16 17 17 17 17 17
24 24 25 25 27 27 25 25 20 6 3 8 5 4 9 4 7 15 17 11 9 5 4 8 2 1 3 2 3 3 3 4 3 2 3 6 4 9 13 13 15 17 18 16 16
24 25 27 26 28 27 26 18 0 5 5 4 1 3 8 4 4 5 12 16 6 11 6 4 2 2 1 4 7 3 3 2 5 9 8 1 4 11 13 14 15 16 17 17 17
25 26 26 28 28 26 23 2 2 3 4 8 5 4 4 7 4 4 9 14 9 9 8 5 5 10 12 6 5 8 1 7 8 9 11 2 3 10 14 14 14 16 17 18 19
26 27 28 30 29 20 4 2 4 2 7 13 16 12 13 3 4 3 16 11 9 10 8 5 11 10 4 4 5 6 4 8 9 6 3 8 5 8 14 15 17 18 18 19 17
27 28 28 31 20 3 8 5 5 4 4 7 8 8 9 12 8 6 13 7 17 13 16 13 6 9 12 9 9 3 5 7 6 4 4 5 7 6 10 13 15 16 15 16 19
28 27 27 31 2 9 6 10 4 2 3 4 5 6 8 10 8 15 15 11 7 17 16 11 9 6 9 8 11 6 4 9 4 5 4 2 4 6 11 15 17 18 18 18 20
30 26 24 17 14 4 1 4 6 4 4 3 4 2 5 14 8 13 14 9 14 11 9 11 11 12 7 9 9 1 8 7 7 3 3 6 5 5 6 11 18 19 22 22 21
32 28 25 11 7 9 5 9 3 3 7 0 5 6 6 12 7 6 11 6 4 9 7 10 2 10 9 7 10 10 6 2 3 1 5 9 7 6 7 12 13 15 20 21 21
37 34 25 10 3 7 6 3 4 5 2 3 1 5 5 10 12 9 16 17 13 14 14 6 7 4 7 7 3 4 5 2 3 4 5 5 7 11 7 10 8 13 16 19 19
44 29 5 18 3 19 6 3 6 3 5 3 2 1 7 10 14 9 17 19 16 17 13 15 10 11 7 6 9 10 3 4 6 5 5 2 7 6 10 8 9 11 10 11 18
29 6 2 3 14 6 4 7 7 4 3 5 4 1 2 4 5 9 17 22 21 18 15 15 15 5 11 6 6 5 9 6 1 1 3 3 5 10 9 13 10 9 9 14 16
11 4 6 6 10 5 4 6 4 3 4 2 2 3 5 4 4 13 13 16 18 17 17 9 13 6 6 7 4 4 3 5 2 5 5 4 4 4 3 8 6 6 5 9 9
4 1 14 11 8 2 5 6 5 5 4 3 2 5 5 4 2 7 9 7 21 16 17 13 9 5 11 12 14 5 6 4 2 2 5 4 4 6 7 8 8 4 5 3 1
5 2 1 8 2 1 2 3 2 3 2 1 2 4 5 4 4 2 8 10 13 18 16 14 11 7 7 2 4 10 10 11 7 5 3 3 5 4 3 5 3 2 5 6 4
3 2 3 2 2 1 3 4 4 3 5 3 3 4 2 2 4 2 3 2 7 15 18 10 11 9 7 5 4 9 8 19 10 3 12 9 4 0 1 5 6 3 4 8 8
2 2 1 2 1 3 5 3 3 2 2 3 3 3 4 5 5 4 3 3 2 6 5 16 19 20 16 14 8 8 15 17 19 14 13 13 14 7 11 6 2 2 6 6 6
4 3 3 3 1 5 4 4 4 3 2 2 3 4 1 3 2 5 4 6 3 7 4 10 13 17 21 18 16 18 17 18 17 19 16 14 15 12 13 9 9 6 9 10 11
4 4 5 4 5 4 1 1 3 6 3 1 3 5 3 5 8 2 7 4 3 2 4 4 5 11 22 22 22 22 22 21 23 23 21 16 15 11 7 3 9 14 14 14 13
5 2 1 3 4 3 1 3 2 11 6 9 7 8 9 4 6 12 14 15 15 6 2 7 5 7 11 16 18 21 28 24 18 16 17 19 17 18 10 12 13 12 13 13 15
Wind_Direction
348 346 346 343 343 343 343 341 340 339 338 339 340 338 335 328 326 304 247 227 186 165 147 154 163 162 180 180 184 186 224 169 44 55 98 110 166 130 104 131 114 41 149 138 151
345 343 342 340 340 339 339 338 339 338 335 337 336 335 335 330 323 258 282 214 182 172 146 155 168 167 189 168 167 216 217 203 182 284 163 133 198 152 153 145 115 86 105 137 151
344 342 340 339 339 337 336 335 335 333 332 332 332 333 334 330 291 237 13 200 175 170 167 163 154 166 178 178 189 157 248 185 246 221 228 348 180 171 161 187 179 168 150 153 159
343 340 340 337 336 334 334 334 331 329 327 327 327 329 329 335 284 214 332 273 171 165 147 140 158 171 187 195 176 247 239 222 248 231 187 218 148 191 194 165 175 163 164 160 167
342 341 338 336 335 334 333 329 328 326 322 319 322 327 339 289 255 298 318 189 171 165 165 153 167 184 207 174 167 243 245 220 244 248 245 207 199 184 197 101 133 148 161 167 170
340 339 338 337 339 335 331 328 325 321 316 312 312 319 333 266 275 294 278 156 174 165 164 165 200 196 132 174 197 217 265 265 267 228 226 200 190 187 130 129 138 154 165 169 174
338 335 340 337 335 333 328 325 323 316 308 299 288 249 217 248 301 89 141 166 175 182 165 183 168 193 148 187 235 281 279 218 204 216 168 168 123 185 145 149 148 161 166 169 177
337 337 338 334 332 330 326 324 320 310 302 289 231 155 250 255 233 244 227 170 177 187 163 156 148 105 116 70 225 266 275 183 57 102 137 204 112 131 156 155 153 165 169 171 180
339 340 336 332 330 330 325 325 317 331 6 129 128 191 260 263 236 235 218 208 167 155 119 130 145 118 156 207 203 359 79 26 344 47 206 220 114 151 166 166 161 172 175 177 184
338 338 334 332 330 332 325 329 352 95 107 96 68 253 246 216 189 178 188 163 149 146 136 151 91 208 188 199 215 157 70 15 328 343 342 137 125 156 173 177 175 180 180 184 194
339 336 334 333 331 329 327 358 221 191 216 211 196 242 297 317 269 169 159 151 137 166 175 172 199 212 216 243 98 90 323 306 300 306 329 318 156 180 180 187 185 189 187 191 199
339 337 334 331 333 325 323 271 94 341 293 236 242 259 261 322 332 154 156 162 164 177 146 151 226 219 246 210 158 200 252 302 302 335 250 298 266 186 192 203 198 195 195 197 198
337 335 333 329 332 320 311 239 164 15 265 272 211 220 224 183 221 235 181 168 177 169 189 202 214 204 220 223 194 175 246 277 275 332 240 287 262 196 202 215 213 218 216 205 199
333 331 332 334 337 321 274 165 314 231 283 247 217 241 172 168 225 203 193 180 176 191 178 212 201 173 187 227 189 238 240 267 270 210 211 247 252 218 206 205 215 215 216 212 204
327 325 328 331 297 262 222 181 314 173 280 125 168 55 157 192 146 204 189 199 197 162 176 195 180 185 197 206 141 329 288 272 230 252 281 192 245 217 173 217 223 214 216 217 212
323 319 321 314 233 242 213 311 187 203 243 311 143 165 156 202 195 133 173 197 194 162 202 187 166 192 207 226 136 182 192 67 73 332 244 221 224 241 196 214 215 216 223 220 212
321 315 300 243 228 141 30 171 190 220 359 142 164 175 200 186 209 188 174 183 178 183 190 174 169 143 136 97 39 118 185 187 188 199 238 158 196 251 253 239 221 200 215 221 219
324 317 290 209 261 242 320 172 216 245 249 337 360 267 203 162 210 195 176 184 198 191 186 193 197 171 163 165 182 172 239 218 207 195 200 167 220 229 259 238 221 241 253 225 214
332 340 54 29 219 158 178 201 212 216 315 331 314 99 157 192 214 190 193 196 187 190 195 200 200 144 176 128 147 159 209 266 232 65 243 182 255 273 250 260 251 241 242 240 228
340 331 17 334 170 198 191 225 237 233 319 324 20 20 38 343 213 195 186 197 188 190 194 193 203 164 134 103 41 184 129 186 220 211 223 197 262 217 238 258 260 297 299 290 255
0 101 1 109 125 240 210 230 248 250 250 323 21 344 342 314 319 203 199 178 196 186 200 187 213 135 155 202 167 152 200 237 227 233 224 227 217 223 262 294 292 345 41 15 16
334 51 233 355 180 34 246 241 293 245 202 291 273 256 266 293 279 269 220 231 190 168 186 195 208 188 191 116 233 201 182 205 223 187 245 270 235 184 238 257 278 114 107 92 82
5 323 25 308 14 6 311 275 261 245 258 223 265 225 215 293 316 263 263 264 174 186 183 173 212 203 187 171 152 209 182 216 242 254 208 225 220 26 225 265 264 178 135 121 116
335 307 75 76 50 345 339 294 293 275 257 247 265 216 244 258 229 288 293 318 65 213 224 188 212 220 225 226 183 193 203 211 225 233 243 238 260 251 250 201 193 148 144 130 130
15 36 355 335 102 338 309 297 302 316 356 269 229 239 14 268 250 228 251 288 262 138 97 185 219 220 231 222 203 218 220 210 216 229 237 254 234 250 249 203 231 193 173 162 155
13 1 348 297 291 298 177 335 321 333 295 291 240 339 352 243 243 23 353 302 338 151 154 177 207 202 224 223 216 227 231 231 223 230 240 261 266 246 286 182 214 206 190 190 167
9 346 313 298 328 297 48 353 350 344 271 266 314 331 308 290 290 284 276 266 269 314 298 170 174 170 220 218 225 230 226 228 224 227 229 236 242 260 224 232 221 205 198 183 162